TimeMDT,TemperatureF,Dew PointF,Humidity,Sea Level PressureIn,VisibilityMPH,Wind Direction,Wind SpeedMPH,Gust SpeedMPH,PrecipitationIn,Events,Conditions,WindDirDegrees,DateUTC
12:15 AM,41.0,37.4,87,30.14,10.0,NE,8.1,-,N/A,,Overcast,50,2013-05-20 06:15:00
12:35 AM,41.0,35.6,81,30.14,10.0,NE,5.8,-,N/A,,Overcast,40,2013-05-20 06:35:00
12:55 AM,41.0,35.6,81,30.14,10.0,NNE,3.5,-,N/A,,Overcast,20,2013-05-20 06:55:00
1:10 AM,41.0,35.6,81,30.14,10.0,NNE,3.5,-,N/A,,Overcast,20,2013-05-20 07:10:00
1:35 AM,39.2,35.6,87,30.14,10.0,NNE,4.6,-,N/A,,Overcast,30,2013-05-20 07:35:00
2:15 AM,39.2,35.6,87,30.14,10.0,Calm,Calm,-,N/A,,Overcast,0,2013-05-20 08:15:00
2:35 AM,39.2,35.6,87,30.14,10.0,ENE,3.5,-,N/A,,Overcast,60,2013-05-20 08:35:00
2:55 AM,39.2,35.6,87,30.14,10.0,Calm,Calm,-,N/A,,Overcast,0,2013-05-20 08:55:00
3:15 AM,39.2,35.6,87,30.14,10.0,Calm,Calm,-,N/A,,Overcast,0,2013-05-20 09:15:00
3:35 AM,37.4,33.8,87,30.14,10.0,Calm,Calm,-,N/A,,Overcast,0,2013-05-20 09:35:00
3:55 AM,37.4,32.0,81,30.15,10.0,Calm,Calm,-,N/A,,Overcast,0,2013-05-20 09:55:00
4:15 AM,37.4,32.0,81,30.15,10.0,Calm,Calm,-,N/A,,Overcast,0,2013-05-20 10:15:00
4:35 AM,37.4,32.0,81,30.15,10.0,Calm,Calm,-,N/A,,Overcast,0,2013-05-20 10:35:00
4:55 AM,37.4,32.0,81,30.15,10.0,Calm,Calm,-,N/A,,Overcast,0,2013-05-20 10:55:00
5:15 AM,37.4,32.0,81,30.15,10.0,Calm,Calm,-,N/A,,Overcast,0,2013-05-20 11:15:00
5:30 AM,37.4,32.0,81,30.15,10.0,Calm,Calm,-,N/A,,Overcast,0,2013-05-20 11:30:00
5:55 AM,37.4,32.0,81,30.16,10.0,South,3.5,-,N/A,,Overcast,180,2013-05-20 11:55:00
6:15 AM,37.4,32.0,81,30.17,10.0,Calm,Calm,-,N/A,,Overcast,0,2013-05-20 12:15:00
6:35 AM,37.4,32.0,81,30.17,10.0,Calm,Calm,-,N/A,,Overcast,0,2013-05-20 12:35:00
6:50 AM,37.4,33.8,87,30.18,10.0,Calm,Calm,-,N/A,,Overcast,0,2013-05-20 12:50:00
7:15 AM,37.4,33.8,87,30.19,10.0,South,3.5,-,N/A,,Overcast,180,2013-05-20 13:15:00
7:35 AM,39.2,35.6,87,30.19,10.0,Calm,Calm,-,N/A,Rain,Light Rain,0,2013-05-20 13:35:00
8:15 AM,41.0,37.4,87,30.20,10.0,Calm,Calm,-,N/A,,Overcast,0,2013-05-20 14:15:00
8:35 AM,42.8,39.2,87,30.20,10.0,Calm,Calm,-,N/A,,Overcast,0,2013-05-20 14:35:00
8:55 AM,44.6,39.2,81,30.20,10.0,Calm,Calm,-,N/A,,Overcast,0,2013-05-20 14:55:00
9:35 AM,44.6,39.2,81,30.21,10.0,Calm,Calm,-,N/A,,Overcast,0,2013-05-20 15:35:00
9:55 AM,46.4,41.0,81,30.20,10.0,NE,5.8,-,N/A,,Overcast,40,2013-05-20 15:55:00
10:15 AM,46.4,42.8,87,30.20,10.0,NE,9.2,-,N/A,,Overcast,50,2013-05-20 16:15:00
10:35 AM,46.4,41.0,81,30.21,10.0,NNE,5.8,-,N/A,Rain,Light Rain,20,2013-05-20 16:35:00
10:55 AM,46.4,41.0,81,30.21,10.0,NE,10.4,-,N/A,,Overcast,40,2013-05-20 16:55:00
11:15 AM,46.4,41.0,81,30.21,10.0,NNE,10.4,-,N/A,Rain,Light Rain,30,2013-05-20 17:15:00
11:35 AM,46.4,41.0,81,30.22,10.0,NE,11.5,-,N/A,,Mostly Cloudy,40,2013-05-20 17:35:00
11:55 AM,46.4,41.0,81,30.22,10.0,North,6.9,-,N/A,Rain,Light Rain,10,2013-05-20 17:55:00
12:15 PM,46.4,41.0,81,30.22,10.0,NNE,10.4,-,N/A,Rain,Light Rain,30,2013-05-20 18:15:00
12:55 PM,46.4,42.8,87,30.22,10.0,NE,5.8,-,N/A,Rain,Light Rain,40,2013-05-20 18:55:00
1:15 PM,48.2,44.6,87,30.22,10.0,NE,6.9,-,N/A,,Mostly Cloudy,40,2013-05-20 19:15:00
1:35 PM,48.2,44.6,87,30.22,10.0,NNE,5.8,-,N/A,,Overcast,20,2013-05-20 19:35:00
1:55 PM,48.2,44.6,87,30.22,10.0,NNW,8.1,-,N/A,,Overcast,340,2013-05-20 19:55:00
2:15 PM,50.0,46.4,87,30.21,10.0,North,8.1,-,N/A,,Mostly Cloudy,350,2013-05-20 20:15:00
2:35 PM,50.0,44.6,82,30.21,10.0,North,10.4,-,N/A,,Overcast,350,2013-05-20 20:35:00
2:55 PM,53.6,48.2,82,30.20,10.0,North,6.9,-,N/A,,Overcast,350,2013-05-20 20:55:00
3:15 PM,53.6,48.2,82,30.19,10.0,North,10.4,16.1,N/A,,Mostly Cloudy,10,2013-05-20 21:15:00
3:35 PM,51.8,46.4,82,30.19,10.0,North,8.1,16.1,N/A,,Overcast,360,2013-05-20 21:35:00
3:55 PM,53.6,48.2,82,30.19,10.0,North,6.9,-,N/A,,Mostly Cloudy,350,2013-05-20 21:55:00
4:15 PM,53.6,48.2,82,30.19,10.0,North,6.9,-,N/A,,Mostly Cloudy,10,2013-05-20 22:15:00
4:35 PM,53.6,48.2,82,30.19,10.0,NNW,6.9,-,N/A,,Mostly Cloudy,330,2013-05-20 22:35:00
4:55 PM,53.6,48.2,82,30.19,10.0,North,9.2,-,N/A,,Overcast,10,2013-05-20 22:55:00
5:15 PM,53.6,50.0,88,30.18,10.0,NNE,8.1,-,N/A,,Overcast,30,2013-05-20 23:15:00
5:35 PM,55.4,50.0,82,30.18,10.0,NNE,21.9,26.5,N/A,,Mostly Cloudy,30,2013-05-20 23:35:00
5:55 PM,50.0,46.4,87,30.19,10.0,NE,13.8,-,N/A,,Overcast,40,2013-05-20 23:55:00
6:15 PM,53.6,48.2,82,30.18,10.0,NE,13.8,20.7,N/A,,Mostly Cloudy,40,2013-05-21 00:15:00
6:35 PM,53.6,48.2,82,30.18,10.0,NNE,12.7,23.0,N/A,,Overcast,30,2013-05-21 00:35:00
6:55 PM,50.0,46.4,87,30.18,10.0,NNE,11.5,16.1,N/A,,Overcast,20,2013-05-21 00:55:00
7:15 PM,50.0,46.4,87,30.18,10.0,NNE,6.9,-,N/A,,Overcast,20,2013-05-21 01:15:00
7:35 PM,50.0,44.6,82,30.19,10.0,NNE,9.2,17.3,N/A,,Overcast,20,2013-05-21 01:35:00
8:15 PM,48.2,42.8,82,30.19,10.0,NNE,4.6,-,N/A,,Overcast,20,2013-05-21 02:15:00
8:35 PM,48.2,42.8,82,30.19,10.0,NE,3.5,-,N/A,,Overcast,40,2013-05-21 02:35:00
8:55 PM,46.4,42.8,87,30.19,10.0,NNE,9.2,-,N/A,,Overcast,30,2013-05-21 02:55:00
9:15 PM,46.4,41.0,81,30.20,10.0,NNE,3.5,-,N/A,,Overcast,30,2013-05-21 03:15:00
9:35 PM,46.4,41.0,81,30.20,10.0,ENE,6.9,-,N/A,,Overcast,60,2013-05-21 03:35:00
9:50 PM,46.4,41.0,81,30.20,10.0,NE,6.9,-,N/A,,Overcast,50,2013-05-21 03:50:00
10:15 PM,46.4,41.0,81,30.19,10.0,NE,9.2,-,N/A,,Overcast,40,2013-05-21 04:15:00
10:35 PM,42.8,39.2,87,30.19,10.0,NNE,6.9,-,N/A,,Overcast,30,2013-05-21 04:35:00
10:50 PM,41.0,37.4,87,30.19,10.0,NE,5.8,-,N/A,,Scattered Clouds,50,2013-05-21 04:50:00
11:15 PM,39.2,35.6,87,30.19,10.0,Calm,Calm,-,N/A,,Clear,0,2013-05-21 05:15:00
11:35 PM,39.2,33.8,81,30.19,10.0,Calm,Calm,-,N/A,,Clear,0,2013-05-21 05:35:00
11:55 PM,37.4,32.0,81,30.18,10.0,Calm,Calm,-,N/A,,Clear,0,2013-05-21 05:55:00